Regional Weather Roundup
Issued by NWS

Home | Current Version | Previous Version | Graphics & Text | Print | Product List | Glossary On
Versions: 1 2 3 4 5 6 7 8 9 10 11 12 13 14 15 16 17 18 19 20 21 22 23 24 25 26 27 28 29 30 31 32 33 34 35 36 37 38 39 40 41 42 43 44 45 46 47 48 49 50
000
ASUS43 KLOT 200606
RWRIL

ILLINOIS REGIONAL WEATHER ROUNDUP
NATIONAL WEATHER SERVICE CHICAGO/ROMEOVILLE IL
1200 AM CST SAT DEC 20 2014

NOTE: "FAIR" INDICATES FEW OR NO CLOUDS BELOW 12,000 FEET WITH NO
SIGNIFICANT WEATHER AND/OR OBSTRUCTIONS TO VISIBILITY.

* THESE STATIONS ARE NOT UNDER NWS QUALITY CONTROL. THEY ALSO MAY NOT
  REPORT WEATHER SUCH AS PRECIPITATION OR FOG.

ILZ001-002-007-009-015-016-024-200700-
NORTHWEST ILLINOIS

CITY           SKY/WX    TMP DP  RH WIND       PRES   REMARKS
MOLINE         CLOUDY    29  24  82 CALM      30.27S
6HR MIN TEMP:  23; 6HR MAX TEMP:  29;

STERLING*      MOCLDY    25  21  86 CALM      30.27S
SAVANNA*       CLOUDY    28  25  89 CALM      30.27S
$$

ILZ003-004-008-010-011-017-018-200700-
NORTH CENTRAL ILLINOIS

CITY           SKY/WX    TMP DP  RH WIND       PRES   REMARKS
ROCKFORD       MOCLDY    25  21  85 CALM      30.29R
6HR MIN TEMP:  25; 6HR MAX TEMP:  28;

FREEPORT*      CLOUDY    26  24  91 CALM      30.28S
ROCHELLE*      MOCLDY    23  22  96 CALM      30.27S FOG
DE KALB*       MOCLDY    21  20  93 N3        30.26S FOG
PERU*          CLOUDY    29  26  87 SE6       30.27S WCI  23
$$

ILZ005-006-012>014-019>023-200700-
NORTHEAST ILLINOIS

CITY           SKY/WX    TMP DP  RH WIND       PRES   REMARKS
CHICAGO-OHARE  CLOUDY    28  22  78 CALM      30.26R
6HR MIN TEMP:  28; 6HR MAX TEMP:  31;

CHICAGO-MIDWAY CLOUDY    33  25  72 SW6       30.27R WCI  28
6HR MIN TEMP:  33; 6HR MAX TEMP:  34;

AURORA         MOCLDY    25  20  81 CALM      30.27S HAZE
6HR MIN TEMP:  24; 6HR MAX TEMP:  31;

LANSING*       CLOUDY    30  26  83 S5        30.28R WCI  25
JOLIET*        CLOUDY    29  24  82 CALM      30.27S
WAUKEGAN       CLOUDY    27  20  75 CALM      30.25F
6HR MIN TEMP:  27; 6HR MAX TEMP:  28;

DUPAGE AIRPORT MOCLDY    25  21  85 CALM      30.26R
6HR MIN TEMP:  25; 6HR MAX TEMP:  30;

KANKAKEE*      CLOUDY    30  27  90 CALM      30.29R
WHEELING       CLOUDY    29  21  72 CALM      30.28S
6HR MIN TEMP:  29; 6HR MAX TEMP:  30;

MORRIS*        CLOUDY    26  24  96 SW3       30.27R
ROMEOVILLE*    CLOUDY    29  24  84 SW3       30.27R
NORTHERLY ISL    N/A     32  23  70 S7          N/A  WCI  26
$$

LMZ740>746-200700-
SOUTHERN LAKE MICHIGAN

STATION/POSITION SKY/WX   TEMP    WIND        PRES    VSBY  WAVE
                          AIR SEA DIR/SP/G                  HT/PER
                          (F)     (DEG/KT/KT) (MB)    (MI)  (FT/S)
WAUKEGAN HARBOR            28        CALM       N/A
HARRISON CRIB              32     210/  7/  8   N/A
BURNHAM HARBOR             32     190/  7/  7   N/A
CALUMET HARBOR             32     170/  3/  4 1023.6S
$$

ILZ025>027-034>036-040-047-049-050-058-095>099-200700-
WEST-CENTRAL ILLINOIS

CITY           SKY/WX    TMP DP  RH WIND       PRES   REMARKS
QUINCY         CLOUDY    31  27  85 SE6       30.25F WCI  25
GALESBURG*     CLOUDY    29  25  85 CALM      30.26F
MACOMB*        CLOUDY    30  26  85 CALM      30.29S
JACKSONVILLE*  CLOUDY    34  28  80 SE3       30.27R
PITTSFIELD*    CLOUDY    32  28  85 SE3       30.28R
$$

ILZ028>032-037-038-041>044-048-051>054-059>061-200700-
CENTRAL ILLINOIS

CITY           SKY/WX    TMP DP  RH WIND       PRES   REMARKS
PONTIAC        PTCLDY    24  22  96 CALM      30.29S
BLOOMINGTON    MOCLDY    25  22  88 CALM      30.27S
DECATUR        CLOUDY    29  26  89 CALM      30.28S
PEORIA         MOCLDY    26  20  77 CALM      30.28S
6HR MIN TEMP:  25; 6HR MAX TEMP:  31;

LACON*         PTCLDY    23  21  93 S3        30.28R
LINCOLN*       CLOUDY    31  27  86 CALM      30.29S
SPRINGFIELD    CLOUDY    31  25  78 E5        30.27F WCI  26
6HR MIN TEMP:  30; 6HR MAX TEMP:  32;

TAYLORVILLE    CLOUDY    32  27  80 CALM      30.27F
$$

ILZ033-039-045-046-055>057-062-063-200700-
EAST-CENTRAL ILLINOIS

CITY           SKY/WX    TMP DP  RH WIND       PRES   REMARKS
CHAMPAIGN      PTCLDY    25  23  92 E3        30.28R FOG
DANVILLE*      CLOUDY    29  27  93 CALM      30.25S FOG
RANTOUL*       CLOUDY    28  27  96 CALM      30.28R FOG
MATTOON        CLOUDY    28  24  85 CALM      30.27R
PARIS*         CLOUDY    31  28  90 CALM      30.29R
$$

ILZ079-100>102-200700-
SOUTHWEST ILLINOIS

CITY           SKY/WX    TMP DP  RH WIND       PRES   REMARKS
ALTON          CLOUDY    33  27  79 CALM      30.28R
BELLEVILLE     CLOUDY    34  29  85 SE2       30.27S
CAHOKIA*       CLOUDY    35  28  75 SE3       30.28S
SPARTA*        CLOUDY    34  29  81 CALM      30.29S
$$

ILZ064>066-069>071-074>076-080>082-084>086-088>090-092>094-200700-
SOUTH-CENTRAL ILLINOIS

CITY           SKY/WX    TMP DP  RH WIND       PRES   REMARKS
CARBONDALE     CLOUDY    33  28  81 SE7       30.28S WCI  27
6HR MIN TEMP:  33; 6HR MAX TEMP:  36;

CAIRO*         CLOUDY    36  32  87 NE5       30.27F WCI  32
EFFINGHAM*     CLOUDY    30  26  86 CALM      30.29S FOG
MARION         CLOUDY    34  30  86 CALM      30.29S
MT. VERNON     CLOUDY    34  25  69 CALM      30.28S
CENTRALIA*     CLOUDY    33  26  76 CALM      30.28S
SALEM*         CLOUDY    34  27  74 CALM      30.27F
METROPOLIS*    CLOUDY    35  31  85 NE3       30.27F
$$

ILZ067-068-072-073-078-083-087-091-200700-
SOUTHEAST ILLINOIS

CITY           SKY/WX    TMP DP  RH WIND       PRES   REMARKS
LAWRENCEVILLE  CLOUDY    31  27  85 SE3       30.30R
FLORA*         CLOUDY    32  27  83 CALM      30.29S
FAIRFIELD*     CLOUDY    32  28  84 E5        30.28S WCI  27
HARRISBURG*    CLOUDY    32  31  96 CALM      30.30F
ROBINSON*      CLOUDY    32  27  83 E3        30.31R
CARMI*         LGT SNOW  35  29  81 E5        30.29S WCI  31
$$

ABBREVIATIONS USED IN REMARKS
   TC - TEMPERATURE IN CELSIUS
  WCI - WIND CHILL INDEX
   HX - HEAT INDEX
  VSB - VISIBILITY
$$




USA.gov is the U.S. government's official web portal to all federal, state and local government web resources and services.